| time (UTC) | temp F | wind direction | speed MPH | gust MPH | rain 1hr in | rain 24hr in | rain mn in | humidity % | barometer mb |
| 20260503235447 | 70 | 302 | 7.0 | 11.0 | 0.00 | 0.00 | 0.00 | 31 | 1003.4 |
| 20260503234940 | 70 | 290 | 7.0 | 12.0 | 0.00 | 0.00 | 0.00 | 31 | 1003.4 |
| 20260503234703 | 71 | 297 | 6.0 | 12.0 | 0.00 | 0.00 | 0.00 | 30 | 1003.4 |
| 20260503233929 | 71 | 302 | 5.0 | 10.0 | 0.00 | 0.00 | 0.00 | 31 | 1003.4 |
| 20260503233423 | 71 | 294 | 4.0 | 9.0 | 0.00 | 0.00 | 0.00 | 30 | 1003.4 |
| 20260503232916 | 71 | 294 | 4.0 | 9.0 | 0.00 | 0.00 | 0.00 | 31 | 1003.5 |
| 20260503232411 | 71 | 294 | 4.0 | 9.0 | 0.00 | 0.00 | 0.00 | 30 | 1003.5 |
| 20260503231905 | 71 | 296 | 4.0 | 11.0 | 0.00 | 0.00 | 0.00 | 30 | 1003.6 |
| 20260503231359 | 71 | 24 | 4.0 | 11.0 | 0.00 | 0.00 | 0.00 | 29 | 1003.6 |
| 20260503230853 | 71 | 264 | 5.0 | 13.0 | 0.00 | 0.00 | 0.00 | 30 | 1003.6 |
| 20260503230348 | 71 | 334 | 6.0 | 13.0 | 0.00 | 0.00 | 0.00 | 33 | 1003.6 |
| 20260503225848 | 71 | 308 | 6.0 | 14.0 | 0.00 | 0.00 | 0.00 | 30 | 1003.5 |
| 20260503225348 | 71 | 331 | 6.0 | 14.0 | 0.00 | 0.00 | 0.00 | 31 | 1003.6 |
| 20260503224848 | 71 | 301 | 4.0 | 13.0 | 0.00 | 0.00 | 0.00 | 30 | 1003.5 |
| 20260503224348 | 71 | 287 | 5.0 | 11.0 | 0.00 | 0.00 | 0.00 | 31 | 1003.4 |
| 20260503223846 | 72 | 324 | 6.0 | 14.0 | 0.00 | 0.00 | 0.00 | 32 | 1003.5 |
| 20260503223346 | 72 | 313 | 6.0 | 14.0 | 0.00 | 0.00 | 0.00 | 30 | 1003.5 |
| 20260503222846 | 72 | 286 | 5.0 | 13.0 | 0.00 | 0.00 | 0.00 | 29 | 1003.4 |
| 20260503222345 | 72 | 279 | 5.0 | 13.0 | 0.00 | 0.00 | 0.00 | 32 | 1003.4 |
| 20260503221843 | 72 | 32 | 7.0 | 13.0 | 0.00 | 0.00 | 0.00 | 28 | 1003.4 |
| 20260503221341 | 72 | 323 | 9.0 | 15.0 | 0.00 | 0.00 | 0.00 | 29 | 1003.4 |
| 20260503220838 | 72 | 304 | 9.0 | 15.0 | 0.00 | 0.00 | 0.00 | 28 | 1003.3 |
| 20260503220339 | 73 | 293 | 8.0 | 14.0 | 0.00 | 0.00 | 0.00 | 29 | 1003.5 |
| 20260503220100 | 72 | 311 | 9.0 | 15.0 | 0.00 | 0.00 | 0.00 | 28 | 1003.4 |
| 20260503215339 | 73 | 307 | 8.0 | 15.0 | 0.00 | 0.00 | 0.00 | 27 | 1003.4 |
| 20260503214838 | 73 | 275 | 8.0 | 14.0 | 0.00 | 0.00 | 0.00 | 29 | 1003.3 |
| 20260503214602 | 73 | 280 | 10.0 | 17.0 | 0.00 | 0.00 | 0.00 | 31 | 1003.4 |
| 20260503214324 | 73 | 298 | 8.0 | 17.0 | 0.00 | 0.00 | 0.00 | 31 | 1003.4 |
| 20260503213338 | 73 | 290 | 7.0 | 11.0 | 0.00 | 0.00 | 0.00 | 32 | 1003.4 |
| 20260503212834 | 73 | 309 | 6.0 | 11.0 | 0.00 | 0.00 | 0.00 | 32 | 1003.4 |
| 20260503212558 | 73 | 265 | 4.0 | 11.0 | 0.00 | 0.00 | 0.00 | 34 | 1003.4 |
| 20260503211834 | 73 | 290 | 4.0 | 11.0 | 0.00 | 0.00 | 0.00 | 34 | 1003.5 |
| 20260503211334 | 73 | 22 | 6.0 | 13.0 | 0.00 | 0.00 | 0.00 | 32 | 1003.7 |
| 20260503210834 | 73 | 343 | 7.0 | 13.0 | 0.00 | 0.00 | 0.00 | 33 | 1003.7 |
| 20260503210334 | 73 | 298 | 6.0 | 11.0 | 0.00 | 0.00 | 0.00 | 32 | 1003.7 |
| 20260503205834 | 73 | 298 | 7.0 | 15.0 | 0.00 | 0.00 | 0.00 | 31 | 1003.8 |
| 20260503205334 | 73 | 295 | 9.0 | 15.0 | 0.00 | 0.00 | 0.00 | 31 | 1003.8 |
| 20260503204834 | 74 | 320 | 7.0 | 13.0 | 0.00 | 0.00 | 0.00 | 31 | 1003.9 |
| 20260503204330 | 74 | 283 | 6.0 | 13.0 | 0.00 | 0.00 | 0.00 | 34 | 1003.8 |
| 20260503203830 | 73 | 317 | 4.0 | 13.0 | 0.00 | 0.00 | 0.00 | 31 | 1003.9 |
| 20260503203330 | 73 | 288 | 4.0 | 12.0 | 0.00 | 0.00 | 0.00 | 33 | 1003.9 |
| 20260503203059 | 74 | 269 | 7.0 | 17.0 | 0.00 | 0.00 | 0.00 | 31 | 1004.0 |
| 20260503202331 | 74 | 304 | 7.0 | 17.0 | 0.00 | 0.00 | 0.00 | 28 | 1004.0 |
| 20260503201831 | 74 | 269 | 7.0 | 14.0 | 0.00 | 0.00 | 0.00 | 30 | 1004.0 |
| 20260503201817 | 74 | 321 | 9.0 | 15.0 | 0.00 | 0.00 | 0.00 | 31 | 1004.0 |
| 20260503200831 | 73 | 304 | 8.0 | 15.0 | 0.00 | 0.00 | 0.00 | 33 | 1004.0 |
| 20260503200331 | 74 | 293 | 8.0 | 16.0 | 0.00 | 0.00 | 0.00 | 33 | 1004.0 |
| 20260503200041 | 74 | 259 | 7.0 | 16.0 | 0.00 | 0.00 | 0.00 | 34 | 1004.1 |
| 20260503195324 | 74 | 279 | 6.0 | 10.0 | 0.00 | 0.00 | 0.00 | 35 | 1004.1 |
| 20260503194825 | 74 | 266 | 5.0 | 11.0 | 0.00 | 0.00 | 0.00 | 34 | 1004.1 |
| 20260503194324 | 74 | 298 | 5.0 | 11.0 | 0.00 | 0.00 | 0.00 | 34 | 1004.2 |
| 20260503193824 | 74 | 270 | 5.0 | 10.0 | 0.00 | 0.00 | 0.00 | 33 | 1004.2 |
| 20260503193324 | 74 | 273 | 7.0 | 12.0 | 0.00 | 0.00 | 0.00 | 35 | 1004.2 |
| 20260503192824 | 74 | 278 | 8.0 | 13.0 | 0.00 | 0.00 | 0.00 | 33 | 1004.3 |
| 20260503192325 | 74 | 296 | 6.0 | 13.0 | 0.00 | 0.00 | 0.00 | 31 | 1004.2 |
| 20260503191826 | 74 | 267 | 5.0 | 9.0 | 0.00 | 0.00 | 0.00 | 38 | 1004.2 |
| 20260503191325 | 74 | 267 | 5.0 | 9.0 | 0.00 | 0.00 | 0.00 | 35 | 1004.3 |
| 20260503191046 | 73 | 282 | 4.0 | 9.0 | 0.00 | 0.00 | 0.00 | 35 | 1004.4 |
| 20260503190324 | 74 | 325 | 4.0 | 11.0 | 0.00 | 0.00 | 0.00 | 36 | 1004.4 |
| 20260503185825 | 73 | 300 | 5.0 | 12.0 | 0.00 | 0.00 | 0.00 | 35 | 1004.5 |
| 20260503185544 | 73 | 328 | 5.0 | 12.0 | 0.00 | 0.00 | 0.00 | 34 | 1004.5 |
| 20260503184818 | 72 | 244 | 6.0 | 10.0 | 0.00 | 0.00 | 0.00 | 35 | 1004.5 |
| 20260503184312 | 73 | 261 | 6.0 | 13.0 | 0.00 | 0.00 | 0.00 | 35 | 1004.6 |
| 20260503184029 | 73 | 308 | 7.0 | 13.0 | 0.00 | 0.00 | 0.00 | 35 | 1004.6 |
| 20260503183300 | 73 | 290 | 5.0 | 11.0 | 0.00 | 0.00 | 0.00 | 37 | 1004.6 |
| 20260503183020 | 72 | 277 | 5.0 | 10.0 | 0.00 | 0.00 | 0.00 | 37 | 1004.5 |
| 20260503182248 | 71 | 242 | 6.0 | 9.0 | 0.00 | 0.00 | 0.00 | 38 | 1004.6 |
| 20260503181741 | 72 | 242 | 5.0 | 10.0 | 0.00 | 0.00 | 0.00 | 37 | 1004.8 |
| 20260503181236 | 72 | 255 | 4.0 | 10.0 | 0.00 | 0.00 | 0.00 | 34 | 1004.7 |
| 20260503180730 | 72 | 291 | 5.0 | 10.0 | 0.00 | 0.00 | 0.00 | 39 | 1004.8 |
| 20260503180224 | 72 | 286 | 6.0 | 12.0 | 0.00 | 0.00 | 0.00 | 35 | 1004.9 |
| 20260503175718 | 72 | 235 | 5.0 | 12.0 | 0.00 | 0.00 | 0.00 | 37 | 1004.9 |
| 20260503175211 | 71 | 290 | 5.0 | 10.0 | 0.00 | 0.00 | 0.00 | 37 | 1004.9 |
| 20260503174929 | 70 | 261 | 5.0 | 10.0 | 0.00 | 0.00 | 0.00 | 43 | 1005.0 |
| 20260503174159 | 69 | 253 | 5.0 | 10.0 | 0.00 | 0.00 | 0.00 | 37 | 1005.0 |
| 20260503173653 | 70 | 259 | 4.0 | 8.0 | 0.00 | 0.00 | 0.00 | 37 | 1005.1 |
| 20260503173147 | 69 | 236 | 4.0 | 10.0 | 0.00 | 0.00 | 0.00 | 41 | 1005.2 |
| 20260503172642 | 70 | 196 | 5.0 | 10.0 | 0.00 | 0.00 | 0.00 | 34 | 1005.1 |
| 20260503172358 | 70 | 292 | 5.0 | 12.0 | 0.00 | 0.00 | 0.00 | 36 | 1005.1 |
| 20260503171629 | 68 | 230 | 5.0 | 12.0 | 0.00 | 0.00 | 0.00 | 42 | 1005.2 |
| 20260503171123 | 70 | 276 | 4.0 | 8.0 | 0.00 | 0.00 | 0.00 | 43 | 1005.3 |
| 20260503170618 | 69 | 217 | 5.0 | 8.0 | 0.00 | 0.00 | 0.00 | 37 | 1005.3 |
| 20260503170112 | 69 | 296 | 4.0 | 8.0 | 0.00 | 0.00 | 0.00 | 43 | 1005.3 |
| 20260503150859 | 63 | 259 | 7.0 | 11.0 | 0.00 | 0.00 | 0.00 | 41 | 1005.7 |
| 20260503150616 | 63 | 237 | 7.0 | 11.0 | 0.00 | 0.00 | 0.00 | 41 | 1005.8 |
| 20260503131258 | 59 | 244 | 6.0 | 13.0 | 0.00 | 0.00 | 0.00 | 46 | 1006.5 |
| 20260503130758 | 59 | 246 | 7.0 | 14.0 | 0.00 | 0.00 | 0.00 | 46 | 1006.5 |
| 20260503130258 | 58 | 228 | 8.0 | 14.0 | 0.00 | 0.00 | 0.00 | 46 | 1006.4 |
| 20260503110751 | 57 | 204 | 7.0 | 14.0 | 0.00 | 0.00 | 0.00 | 48 | 1006.1 |
| 20260503110251 | 57 | 216 | 7.0 | 14.0 | 0.00 | 0.00 | 0.00 | 48 | 1006.1 |
| 20260503100229 | 56 | 287 | 4.0 | 7.0 | 0.00 | 0.00 | 0.00 | 50 | 1007.0 |
| 20260503090116 | 55 | 203 | 3.0 | 8.0 | 0.00 | 0.00 | 0.00 | 50 | 1007.9 |
| 20260503081522 | 54 | 247 | 2.0 | 4.0 | 0.00 | 0.00 | 0.00 | 49 | 1008.6 |
| 20260503081232 | 54 | 291 | 2.0 | 8.0 | 0.00 | 0.00 | 0.00 | 49 | 1008.7 |
| 20260503080511 | 54 | 242 | 2.0 | 8.0 | 0.00 | 0.00 | 0.00 | 49 | 1008.5 |
| 20260503072928 | 55 | 266 | 2.0 | 4.0 | 0.00 | 0.00 | 0.00 | 48 | 1008.8 |
| 20260503072422 | 55 | 266 | 2.0 | 4.0 | 0.00 | 0.00 | 0.00 | 48 | 1008.9 |
| 20260503071917 | 55 | 265 | 2.0 | 4.0 | 0.00 | 0.00 | 0.00 | 47 | 1009.1 |
| 20260503071410 | 55 | 265 | 2.0 | 5.0 | 0.00 | 0.00 | 0.00 | 47 | 1009.1 |
| 20260503071121 | 56 | 238 | 3.0 | 6.0 | 0.00 | 0.00 | 0.00 | 47 | 1009.2 |
| 20260503070359 | 56 | 285 | 3.0 | 7.0 | 0.00 | 0.00 | 0.00 | 47 | 1009.3 |
| 20260503060248 | 55 | 234 | 2.0 | 4.0 | 0.00 | 0.00 | 0.00 | 46 | 1009.6 |
| 20260503054728 | 55 | 238 | 1.0 | 3.0 | 0.00 | 0.00 | 0.00 | 47 | 1010.0 |
| 20260503054223 | 55 | 238 | 1.0 | 3.0 | 0.00 | 0.00 | 0.00 | 48 | 1010.0 |
| 20260503053717 | 55 | 235 | 1.0 | 3.0 | 0.00 | 0.00 | 0.00 | 49 | 1010.0 |
| 20260503053430 | 55 | 250 | 1.0 | 3.0 | 0.00 | 0.00 | 0.00 | 49 | 1010.0 |
| 20260503052705 | 55 | 250 | 1.0 | 3.0 | 0.00 | 0.00 | 0.00 | 49 | 1010.0 |
| 20260503052159 | 55 | 249 | 0.0 | 2.0 | 0.00 | 0.00 | 0.00 | 50 | 1010.1 |
| 20260503051653 | 54 | 248 | 0.0 | 2.0 | 0.00 | 0.00 | 0.00 | 49 | 1010.1 |
| 20260503051146 | 54 | 248 | 1.0 | 3.0 | 0.00 | 0.00 | 0.00 | 50 | 1010.3 |
| 20260503050640 | 54 | 248 | 1.0 | 4.0 | 0.00 | 0.00 | 0.00 | 50 | 1010.1 |
| 20260503050135 | 54 | 249 | 1.0 | 4.0 | 0.00 | 0.00 | 0.00 | 50 | 1010.3 |
| 20260503045629 | 54 | 246 | 1.0 | 3.0 | 0.00 | 0.00 | 0.00 | 51 | 1010.3 |
| 20260503045122 | 53 | 246 | 0.0 | 3.0 | 0.00 | 0.00 | 0.00 | 51 | 1010.1 |
| 20260503044616 | 53 | 245 | 0.0 | 2.0 | 0.00 | 0.00 | 0.00 | 52 | 1010.3 |
| 20260503044111 | 53 | 245 | 0.0 | 2.0 | 0.00 | 0.00 | 0.00 | 52 | 1010.3 |
| 20260503043604 | 53 | 245 | 0.0 | 1.0 | 0.00 | 0.00 | 0.00 | 53 | 1010.3 |
| 20260503043059 | 53 | 245 | 0.0 | 1.0 | 0.00 | 0.00 | 0.00 | 55 | 1010.4 |
| 20260503042552 | 53 | 245 | 0.0 | 3.0 | 0.00 | 0.00 | 0.00 | 54 | 1010.4 |
| 20260503042048 | 53 | 245 | 0.0 | 3.0 | 0.00 | 0.00 | 0.00 | 54 | 1010.4 |
| 20260503041801 | 53 | 244 | 0.0 | 2.0 | 0.00 | 0.00 | 0.00 | 53 | 1010.5 |
| 20260503041034 | 53 | 244 | 0.0 | 2.0 | 0.00 | 0.00 | 0.00 | 56 | 1010.5 |
| 20260503040529 | 53 | 244 | 0.0 | 1.0 | 0.00 | 0.00 | 0.00 | 55 | 1010.6 |
| 20260503040504 | 53 | 244 | 0.0 | 0.0 | 0.00 | 0.00 | 0.00 | 59 | 1010.6 |
| 20260503035517 | 53 | 244 | 0.0 | 0.0 | 0.00 | 0.00 | 0.00 | 57 | 1010.6 |
| 20260503035011 | 53 | 244 | 0.0 | 0.0 | 0.00 | 0.00 | 0.00 | 57 | 1010.8 |
| 20260503034504 | 53 | 244 | 0.0 | 0.0 | 0.00 | 0.00 | 0.00 | 60 | 1010.8 |
| 20260503033959 | 53 | 244 | 0.0 | 0.0 | 0.00 | 0.00 | 0.00 | 59 | 1010.9 |
| 20260503033453 | 53 | 244 | 0.0 | 0.0 | 0.00 | 0.00 | 0.00 | 59 | 1011.0 |
| 20260503033211 | 53 | 244 | 0.0 | 1.0 | 0.00 | 0.00 | 0.00 | 61 | 1011.0 |
| 20260503032441 | 53 | 244 | 0.0 | 1.0 | 0.00 | 0.00 | 0.00 | 59 | 1011.0 |
| 20260503031934 | 53 | 244 | 0.0 | 1.0 | 0.00 | 0.00 | 0.00 | 58 | 1011.0 |
| 20260503031429 | 54 | 244 | 0.0 | 2.0 | 0.00 | 0.00 | 0.00 | 59 | 1011.1 |
| 20260503030923 | 54 | 244 | 0.0 | 2.0 | 0.00 | 0.00 | 0.00 | 57 | 1011.1 |
| 20260503030417 | 53 | 244 | 0.0 | 1.0 | 0.00 | 0.00 | 0.00 | 59 | 1011.1 |
| 20260503025910 | 53 | 244 | 0.0 | 3.0 | 0.00 | 0.00 | 0.00 | 61 | 1011.3 |
| 20260503025405 | 53 | 244 | 0.0 | 3.0 | 0.00 | 0.00 | 0.00 | 56 | 1011.2 |
| 20260503024858 | 53 | 219 | 0.0 | 2.0 | 0.00 | 0.00 | 0.00 | 59 | 1011.3 |
| 20260503024614 | 53 | 219 | 1.0 | 2.0 | 0.00 | 0.00 | 0.00 | 63 | 1011.4 |
| 20260503023846 | 53 | 219 | 0.0 | 2.0 | 0.00 | 0.00 | 0.00 | 61 | 1011.4 |
| 20260503023341 | 54 | 219 | 0.0 | 2.0 | 0.00 | 0.00 | 0.00 | 60 | 1011.3 |
| 20260503022834 | 55 | 219 | 0.0 | 2.0 | 0.00 | 0.00 | 0.00 | 56 | 1011.4 |
| 20260503022329 | 55 | 234 | 0.0 | 0.0 | 0.00 | 0.00 | 0.00 | 51 | 1011.5 |
| 20260503021823 | 54 | 234 | 0.0 | 0.0 | 0.00 | 0.00 | 0.00 | 57 | 1011.5 |
| 20260503021316 | 55 | 234 | 0.0 | 0.0 | 0.00 | 0.00 | 0.00 | 58 | 1011.5 |
| 20260503020811 | 55 | 234 | 0.0 | 2.0 | 0.00 | 0.00 | 0.00 | 54 | 1011.5 |
| 20260503020304 | 56 | 234 | 1.0 | 3.0 | 0.00 | 0.00 | 0.00 | 55 | 1011.4 |
| 20260503015759 | 57 | 234 | 1.0 | 3.0 | 0.00 | 0.00 | 0.00 | 51 | 1011.4 |
| 20260503015731 | 57 | 232 | 1.0 | 2.0 | 0.00 | 0.00 | 0.00 | 48 | 1011.4 |
| 20260503014747 | 58 | 232 | 1.0 | 2.0 | 0.00 | 0.00 | 0.00 | 49 | 1011.4 |
| 20260503014241 | 58 | 248 | 1.0 | 4.0 | 0.00 | 0.00 | 0.00 | 44 | 1011.4 |
| 20260503013734 | 58 | 248 | 2.0 | 4.0 | 0.00 | 0.00 | 0.00 | 45 | 1011.4 |
| 20260503013229 | 57 | 250 | 2.0 | 3.0 | 0.00 | 0.00 | 0.00 | 46 | 1011.4 |
| 20260503012951 | 56 | 265 | 1.0 | 3.0 | 0.00 | 0.00 | 0.00 | 50 | 1011.4 |
| 20260503012218 | 56 | 266 | 0.0 | 2.0 | 0.00 | 0.00 | 0.00 | 52 | 1011.4 |
| 20260503011710 | 57 | 265 | 0.0 | 2.0 | 0.00 | 0.00 | 0.00 | 50 | 1011.5 |
| 20260503011205 | 58 | 273 | 0.0 | 2.0 | 0.00 | 0.00 | 0.00 | 48 | 1011.5 |
| 20260503010659 | 58 | 273 | 0.0 | 2.0 | 0.00 | 0.00 | 0.00 | 47 | 1011.3 |
| 20260503010153 | 58 | 273 | 0.0 | 0.0 | 0.00 | 0.00 | 0.00 | 46 | 1011.4 |
| 20260503005646 | 58 | 273 | 0.0 | 0.0 | 0.00 | 0.00 | 0.00 | 49 | 1011.4 |
| 20260503005141 | 58 | 273 | 0.0 | 0.0 | 0.00 | 0.00 | 0.00 | 49 | 1011.6 |
| 20260503004634 | 58 | 273 | 0.0 | 0.0 | 0.00 | 0.00 | 0.00 | 48 | 1011.6 |
| 20260503004129 | 59 | 273 | 0.0 | 0.0 | 0.00 | 0.00 | 0.00 | 44 | 1011.7 |
| 20260503003844 | 60 | 273 | 0.0 | 0.0 | 0.00 | 0.00 | 0.00 | 39 | 1011.7 |
| 20260503003117 | 60 | 273 | 0.0 | 2.0 | 0.00 | 0.00 | 0.00 | 38 | 1011.8 |
| 20260503002617 | 60 | 273 | 0.0 | 3.0 | 0.00 | 0.00 | 0.00 | 37 | 1011.8 |
| 20260503002117 | 60 | 273 | 0.0 | 3.0 | 0.00 | 0.00 | 0.00 | 37 | 1011.8 |
| 20260503001617 | 61 | 284 | 0.0 | 1.0 | 0.00 | 0.00 | 0.00 | 37 | 1011.9 |
| 20260503001117 | 61 | 284 | 1.0 | 3.0 | 0.00 | 0.00 | 0.00 | 37 | 1011.9 |
| 20260503000617 | 61 | 284 | 2.0 | 3.0 | 0.00 | 0.00 | 0.00 | 37 | 1012.0 |
| 20260503000115 | 61 | 259 | 2.0 | 3.0 | 0.00 | 0.00 | 0.00 | 36 | 1011.9 |
| 20260502235839 | 61 | 272 | 2.0 | 3.0 | 0.00 | 0.00 | 0.00 | 38 | 1012.1 |